Regional Weather Roundup
Issued by NWS

Home | Current Version | Previous Version | Graphics & Text | Print | Product List | Glossary On
Versions: 1 2 3 4 5 6 7 8 9 10 11 12 13 14 15 16 17 18 19 20 21 22 23 24 25 26 27
000
ASUS45 KBOU 072107
RWRCO

WEATHER ROUNDUP FOR COLORADO
NATIONAL WEATHER SERVICE DENVER/BOULDER CO
200 PM MST WED DEC 07 2016

NOTE: "FAIR" INDICATES FEW OR NO CLOUDS BELOW 12000 FEET WITH NO
SIGNIFICANT WEATHER AND/OR OBSTRUCTIONS TO VISIBILITY.

COZ001>005-013-030-031-072200-
...NORTHWEST COLORADO...

CITY           SKY/WX    TMP DP  RH WIND       PRES   REMARKS
CRAIG          PTSUNNY   18   3  52 W10       30.17R WCI   6
HAYDEN         PTSUNNY   12   0  57 W7        30.14R WCI   2
MEEKER         FLURRIES  19  12  74 NE9       30.13R WCI   8
MOUNT WERNER   NOT AVBL
STEAMBOAT SPGS FAIR      15   2  55 SW8G20    30.10R WCI   4
WALDEN           N/A     10   1  67 N13       30.02R WCI  -5
$$

COZ006>008-011-072200-
...WEST CENTRAL VALLEYS...

CITY           SKY/WX    TMP DP  RH WIND       PRES   REMARKS
GRAND JUNCTION CLOUDY    33   6  32 N14       30.15R WCI  23
MONTROSE       FAIR      29   4  34 CALM      30.13F
EAGLE          CLOUDY    25   9  50 W12       30.10R WCI  14
RIFLE          CLOUDY    27  10  49 NW13G18   30.15R WCI  16
DELTA          NOT AVBL
NUCLA          FAIR      32   0  25 NW7       30.13F WCI  26
$$

COZ017>023-064>068-072200-
...SOUTHWEST COLORADO...

CITY           SKY/WX    TMP DP  RH WIND       PRES   REMARKS
DURANGO        FAIR      33  -3  21 SW18G25   30.01S WCI  22
CORTEZ         FAIR      34   0  23 N10G20    30.08S WCI  26
PAGOSA SPRINGS FAIR      31  -3  22 SW10      29.97S WCI  22
TELLURIDE      FAIR      18  -2  42 W7        30.02R WCI   9
WOLF CREEK PAS FAIR       9   7  92 SW15G29   29.91R WCI  -8
$$

COZ009-010-012-014-032>034-037-058>063-072200-
...CENTRAL COLORADO...

CITY           SKY/WX    TMP DP  RH WIND       PRES   REMARKS
ASPEN          PTSUNNY   16   2  54 N10       30.01R WCI   4
BUENA VISTA    FAIR      24  -8  24 SW8G20    29.96S WCI  14
COPPER MTN     NOT AVBL
BERTHOUD PASS  SNOW      -8 -20  54 NW21G32   29.75R VSB 1/2 WCI -32
COTTONWOOD PAS FAIR      16  -9  32 SW14G30   29.90R WCI   1
GUNNISON       FLURRIES  22   0  38 W14G25    30.02R WCI   9
KREMMLING      PTSUNNY   19   3  49 N9G20     30.06R WCI   9
LEADVILLE      LGT SNOW   6  -4  63 NW12G22   29.90R WCI  -9
MONARCH PASS   TSTM       0  -4  85 W40G49    29.91S WCI -29
SALIDA         FAIR      26  -5  26 NW17G26   30.06R WCI  13
SUNLIGHT       LGT SNOW   3   0  85 W3        29.97R
WILKERSON PASS FAIR       5  -6  61 W8G16     29.86R WCI  -8
$$

COZ069>075-072200-
...SAN LUIS VALLEY/SANGRE DE CRISTO MOUNTAINS...

CITY           SKY/WX    TMP DP  RH WIND       PRES   REMARKS
ALAMOSA        FAIR      30   3  31 N10       29.95S WCI  21
LA VETA PASS   FAIR      18   5  57 N6        29.89R WCI   9
SAGUACHE       FAIR      27  -4  26 N23G30    29.96S WCI  12
$$

COZ035-036-038>040-072200-
...NORTHERN COLORADO FRONT RANGE...

CITY           SKY/WX    TMP DP  RH WIND       PRES   REMARKS
DENVER INTL AP PTSUNNY   11   2  67 NE7       30.19R WCI   0
DMNS CITY PARK   N/A     11   4  71 NE2G9     30.21R
AURORA         PTSUNNY    9   3  77 E6        30.18R WCI  -1
FRONT RANGE AP CLOUDY    10   5  79 N5        30.20R WCI   2
ERIE MUNI ARPT LGT SNOW  13   7  77 N6        30.23R WCI   3
BOULDER MUN AP FLURRIES  12   5  73 CALM      30.21R
CENTENNIAL     LGT SNOW  10   3  73 E5        30.15R FOG     WCI   2
BROOMFIELD     LGT SNOW  10   5  79 NE5       30.18R FOG     WCI   2
FORT COLLINS   CLOUDY    12   3  67 E5        30.24R WCI   4
LONGMONT       CLOUDY    17   5  60 CALM      30.25R
$$

COZ041-046-047-076>085-087-088-072200-
...PIKES PEAK/PALMER DIVIDE AND SOUTHERN FOOTHILLS...

CITY           SKY/WX    TMP DP  RH WIND       PRES   REMARKS
COLO. SPRINGS  FLURRIES  16   7  67 NE15      30.10R WCI   1
A. F. ACADEMY  LGT SNOW  12   5  73 NW10      30.07R WCI  -1
SCHRIEVER AFB  NOT AVBL
ELLICOTT       CLOUDY   N/A N/A N/A NE9       30.09R
FALCON         LGT SNOW  13   6  73 NE12      30.08R WCI  -1
FORT CARSON    CLOUDY    19   9  63 E9        30.10R WCI   9
LIMON          CLOUDY    11   7  84 N13       30.18R WCI  -4
MONUMENT HILL  LGT SNOW   9   3  78 N3        30.08R VSB 1
TRINIDAD       LGT SNOW  19  10  68 NE12      30.11R WCI   7
$$

COZ042>045-048>051-090-091-072200-
...NORTHEAST COLORADO...

CITY           SKY/WX    TMP DP  RH WIND       PRES   REMARKS
GREELEY ARPT   CLOUDY    12   3  67 NE8       30.28R WCI   0
AKRON          FLURRIES  11   3  70 N13       30.24R WCI  -4
BURLINGTON     FLURRIES  16   8  71 N10       30.25R WCI   4
WRAY           NOT AVBL
STERLING       CLOUDY    14   7  73 N12       30.29R WCI   0
HOLYOKE        PTSUNNY   19  10  68 NW16      30.30R WCI   5
FORT MORGAN    CLOUDY    15   4  61 N10       30.27R WCI   2
$$

COZ086-089-092>099-072200-
...SOUTHEAST COLORADO...

CITY           SKY/WX    TMP DP  RH WIND       PRES   REMARKS
PUEBLO         PTSUNNY   25  10  53 SE6       30.16R WCI  18
LA JUNTA       FLURRIES  20  14  77 E10       30.22R WCI   9
LAMAR          LGT SNOW  19  12  74 NE13      30.25R WCI   6
SPRINGFIELD      N/A     17  12  80 N14       30.17R WCI   3
$$




USA.gov is the U.S. government's official web portal to all federal, state and local government web resources and services.